Year,Month,Day,Hour,Minute,Value (Times are PST for temperature in C)
2023,03,29,00,00,10.60
2023,03,29,00,01,10.60
2023,03,29,00,02,10.70
2023,03,29,00,03,10.70
2023,03,29,00,04,10.80
2023,03,29,00,05,10.80
2023,03,29,00,06,10.80
2023,03,29,00,07,10.70
2023,03,29,00,08,10.70
2023,03,29,00,09,10.60
2023,03,29,00,10,10.60
2023,03,29,00,11,10.50
2023,03,29,00,12,10.40
2023,03,29,00,13,10.40
2023,03,29,00,14,10.30
2023,03,29,00,15,10.20
2023,03,29,00,16,10.10
2023,03,29,00,17,10.00
2023,03,29,00,18,9.90
2023,03,29,00,19,9.90
2023,03,29,00,20,9.80
2023,03,29,00,21,9.70
2023,03,29,00,22,9.70
2023,03,29,00,23,9.60
2023,03,29,00,24,9.50
2023,03,29,00,25,9.50
2023,03,29,00,26,9.40
2023,03,29,00,27,9.30
2023,03,29,00,28,9.30
2023,03,29,00,29,9.20
2023,03,29,00,30,9.10
2023,03,29,00,31,9.00
2023,03,29,00,32,8.90
2023,03,29,00,33,8.70
2023,03,29,00,34,8.60
2023,03,29,00,35,8.40
2023,03,29,00,36,8.30
2023,03,29,00,37,8.20
2023,03,29,00,38,8.10
2023,03,29,00,39,8.00
2023,03,29,00,40,7.90
2023,03,29,00,41,7.90
2023,03,29,00,42,7.80
2023,03,29,00,43,7.80
2023,03,29,00,44,7.80
2023,03,29,00,45,7.80
2023,03,29,00,46,7.80
2023,03,29,00,47,7.80
2023,03,29,00,48,7.80
2023,03,29,00,49,7.80
2023,03,29,00,50,7.80
2023,03,29,00,51,7.70
2023,03,29,00,52,7.70
2023,03,29,00,53,7.60
2023,03,29,00,54,7.60
2023,03,29,00,55,7.50
2023,03,29,00,56,7.50
2023,03,29,00,57,7.40
2023,03,29,00,58,7.40
2023,03,29,00,59,7.30
2023,03,29,01,00,7.30
2023,03,29,01,01,7.30
2023,03,29,01,02,7.30
2023,03,29,01,03,7.30
2023,03,29,01,04,7.20
2023,03,29,01,05,7.20
2023,03,29,01,06,7.20
2023,03,29,01,07,7.30
2023,03,29,01,08,7.30
2023,03,29,01,09,7.30
2023,03,29,01,10,7.30
2023,03,29,01,11,7.30
2023,03,29,01,12,7.30
2023,03,29,01,13,7.30
2023,03,29,01,14,7.30
2023,03,29,01,15,7.30
2023,03,29,01,16,7.40
2023,03,29,01,17,7.40
2023,03,29,01,18,7.40
2023,03,29,01,19,7.40
2023,03,29,01,20,7.40
2023,03,29,01,21,7.40
2023,03,29,01,22,7.30
2023,03,29,01,23,7.30
2023,03,29,01,24,7.30
2023,03,29,01,25,7.30
2023,03,29,01,26,7.20
2023,03,29,01,27,7.20
2023,03,29,01,28,7.20
2023,03,29,01,29,7.20
2023,03,29,01,30,7.20
2023,03,29,01,31,7.20
2023,03,29,01,32,7.20
2023,03,29,01,33,7.20
2023,03,29,01,34,7.10
2023,03,29,01,35,7.10
2023,03,29,01,36,7.10
2023,03,29,01,37,7.10
2023,03,29,01,38,7.10
2023,03,29,01,39,7.00
2023,03,29,01,40,7.00
2023,03,29,01,41,7.00
2023,03,29,01,42,6.90
2023,03,29,01,43,6.90
2023,03,29,01,44,6.80
2023,03,29,01,45,6.80
2023,03,29,01,46,6.80
2023,03,29,01,47,6.70
2023,03,29,01,48,6.70
2023,03,29,01,49,6.60
2023,03,29,01,50,6.60
2023,03,29,01,51,6.50
2023,03,29,01,52,6.40
2023,03,29,01,53,6.40
2023,03,29,01,54,6.30
2023,03,29,01,55,6.30
2023,03,29,01,56,6.30
2023,03,29,01,57,6.30
2023,03,29,01,58,6.30
2023,03,29,01,59,6.30
2023,03,29,02,00,6.30
2023,03,29,02,01,6.20
2023,03,29,02,02,6.20
2023,03,29,02,03,6.20
2023,03,29,02,04,6.20
2023,03,29,02,05,6.20
2023,03,29,02,06,6.20
2023,03,29,02,07,6.20
2023,03,29,02,08,6.20
2023,03,29,02,09,6.20
2023,03,29,02,10,6.30
2023,03,29,02,11,6.30
2023,03,29,02,12,6.40
2023,03,29,02,13,6.40
2023,03,29,02,14,6.40
2023,03,29,02,15,6.30
2023,03,29,02,16,6.30
2023,03,29,02,17,6.30
2023,03,29,02,18,6.30
2023,03,29,02,19,6.30
2023,03,29,02,20,6.20
2023,03,29,02,21,6.20
2023,03,29,02,22,6.20
2023,03,29,02,23,6.10
2023,03,29,02,24,6.10
2023,03,29,02,25,6.00
2023,03,29,02,26,6.00
2023,03,29,02,27,6.00
2023,03,29,02,28,6.00
2023,03,29,02,29,6.00
2023,03,29,02,30,6.00
2023,03,29,02,31,6.00
2023,03,29,02,32,6.00
2023,03,29,02,33,6.00
2023,03,29,02,34,6.10
2023,03,29,02,35,6.20
2023,03,29,02,36,6.20
2023,03,29,02,37,6.20
2023,03,29,02,38,6.20
2023,03,29,02,39,6.20
2023,03,29,02,40,6.20
2023,03,29,02,41,6.10
2023,03,29,02,42,6.10
2023,03,29,02,43,6.00
2023,03,29,02,44,6.00
2023,03,29,02,45,5.90
2023,03,29,02,46,5.90
2023,03,29,02,47,5.80
2023,03,29,02,48,5.80
2023,03,29,02,49,5.70
2023,03,29,02,50,5.70
2023,03,29,02,51,5.70
2023,03,29,02,52,5.70
2023,03,29,02,53,5.60
2023,03,29,02,54,5.60
2023,03,29,02,55,5.50
2023,03,29,02,56,5.50
2023,03,29,02,57,5.50
2023,03,29,02,58,5.50
2023,03,29,02,59,5.50
2023,03,29,03,00,5.50
2023,03,29,03,01,5.50
2023,03,29,03,02,5.50
2023,03,29,03,03,5.50
2023,03,29,03,04,5.60
2023,03,29,03,05,5.60
2023,03,29,03,06,5.70
2023,03,29,03,07,5.70
2023,03,29,03,08,5.70
2023,03,29,03,09,5.70
2023,03,29,03,10,5.70
2023,03,29,03,11,5.70
2023,03,29,03,12,5.80
2023,03,29,03,13,5.80
2023,03,29,03,14,5.80
2023,03,29,03,15,5.90
2023,03,29,03,16,5.90
2023,03,29,03,17,5.90
2023,03,29,03,18,5.90
2023,03,29,03,19,5.80
2023,03,29,03,20,5.70
2023,03,29,03,21,5.70
2023,03,29,03,22,5.70
2023,03,29,03,23,5.70
2023,03,29,03,24,5.70
2023,03,29,03,25,5.80
2023,03,29,03,26,5.90
2023,03,29,03,27,6.10
2023,03,29,03,28,6.20
2023,03,29,03,29,6.30
2023,03,29,03,30,6.40
2023,03,29,03,31,6.40
2023,03,29,03,32,6.50
2023,03,29,03,33,6.60
2023,03,29,03,34,6.60
2023,03,29,03,35,6.60
2023,03,29,03,36,6.60
2023,03,29,03,37,6.60
2023,03,29,03,38,6.60
2023,03,29,03,39,6.60
2023,03,29,03,40,6.60
2023,03,29,03,41,6.60
2023,03,29,03,42,6.60
2023,03,29,03,43,6.60
2023,03,29,03,44,6.60
2023,03,29,03,45,6.60
2023,03,29,03,46,6.50
2023,03,29,03,47,6.40
2023,03,29,03,48,6.40
2023,03,29,03,49,6.30
2023,03,29,03,50,6.20
2023,03,29,03,51,6.10
2023,03,29,03,52,6.10
2023,03,29,03,53,6.10
2023,03,29,03,54,6.10
2023,03,29,03,55,6.30
2023,03,29,03,56,6.40
2023,03,29,03,57,6.60
2023,03,29,03,58,6.60
2023,03,29,03,59,6.60
2023,03,29,04,00,6.60
2023,03,29,04,01,6.60
2023,03,29,04,02,6.40
2023,03,29,04,03,6.40
2023,03,29,04,04,6.30
2023,03,29,04,05,6.20
2023,03,29,04,06,6.20
2023,03,29,04,07,6.10
2023,03,29,04,08,6.10
2023,03,29,04,09,6.00
2023,03,29,04,10,6.00
2023,03,29,04,11,5.90
2023,03,29,04,12,5.90
2023,03,29,04,13,5.80
2023,03,29,04,14,5.70
2023,03,29,04,15,5.70
2023,03,29,04,16,5.70
2023,03,29,04,17,5.70
2023,03,29,04,18,5.70
2023,03,29,04,19,5.70
2023,03,29,04,20,5.70
2023,03,29,04,21,5.70
2023,03,29,04,22,5.70
2023,03,29,04,23,5.70
2023,03,29,04,24,5.60
2023,03,29,04,25,5.60
2023,03,29,04,26,5.60
2023,03,29,04,27,5.50
2023,03,29,04,28,5.50
2023,03,29,04,29,5.40
2023,03,29,04,30,5.40
2023,03,29,04,31,5.30
2023,03,29,04,32,5.30
2023,03,29,04,33,5.30
2023,03,29,04,34,5.40
2023,03,29,04,35,5.50
2023,03,29,04,36,5.50
2023,03,29,04,37,5.60
2023,03,29,04,38,5.60
2023,03,29,04,39,5.70
2023,03,29,04,40,5.70
2023,03,29,04,41,5.70
2023,03,29,04,42,5.70
2023,03,29,04,43,5.70
2023,03,29,04,44,5.60
2023,03,29,04,45,5.60
2023,03,29,04,46,5.60
2023,03,29,04,47,5.60
2023,03,29,04,48,5.50
2023,03,29,04,49,5.60
2023,03,29,04,50,5.60
2023,03,29,04,51,5.60
2023,03,29,04,52,5.60
2023,03,29,04,53,5.60
2023,03,29,04,54,5.60
2023,03,29,04,55,5.70
2023,03,29,04,56,5.70
2023,03,29,04,57,5.70
2023,03,29,04,58,5.70
2023,03,29,04,59,5.60
2023,03,29,05,00,5.50
2023,03,29,05,01,5.50
2023,03,29,05,02,5.60
2023,03,29,05,03,5.60
2023,03,29,05,04,5.50
2023,03,29,05,05,5.50
2023,03,29,05,06,5.50
2023,03,29,05,07,5.50
2023,03,29,05,08,5.50
2023,03,29,05,09,5.50
2023,03,29,05,10,5.40
2023,03,29,05,11,5.40
2023,03,29,05,12,5.30
2023,03,29,05,13,5.30
2023,03,29,05,14,5.20
2023,03,29,05,15,5.10
2023,03,29,05,16,5.10
2023,03,29,05,17,5.20
2023,03,29,05,18,5.30
2023,03,29,05,19,5.40
2023,03,29,05,20,5.40
2023,03,29,05,21,5.50
2023,03,29,05,22,5.50
2023,03,29,05,23,5.50
2023,03,29,05,24,5.50
2023,03,29,05,25,5.50
2023,03,29,05,26,5.50
2023,03,29,05,27,5.40
2023,03,29,05,28,5.40
2023,03,29,05,29,5.40
2023,03,29,05,30,5.30
2023,03,29,05,31,5.30
2023,03,29,05,32,5.30
2023,03,29,05,33,5.30
2023,03,29,05,34,5.40
2023,03,29,05,35,5.50
2023,03,29,05,36,5.60
2023,03,29,05,37,5.70
2023,03,29,05,38,5.70
2023,03,29,05,39,5.90
2023,03,29,05,40,6.00
2023,03,29,05,41,6.20
2023,03,29,05,42,6.30
2023,03,29,05,43,6.50
2023,03,29,05,44,6.70
2023,03,29,05,45,6.90
2023,03,29,05,46,7.10
2023,03,29,05,47,7.30
2023,03,29,05,48,7.50
2023,03,29,05,49,7.60
2023,03,29,05,50,7.70
2023,03,29,05,51,7.80
2023,03,29,05,52,7.80
2023,03,29,05,53,7.90
2023,03,29,05,54,7.90
2023,03,29,05,55,7.90
2023,03,29,05,56,7.90
2023,03,29,05,57,7.80
2023,03,29,05,58,7.80
2023,03,29,05,59,7.70
2023,03,29,06,00,7.60
2023,03,29,06,01,7.40
2023,03,29,06,02,7.30
2023,03,29,06,03,7.20
2023,03,29,06,04,7.00
2023,03,29,06,05,6.90
2023,03,29,06,06,6.80
2023,03,29,06,07,6.80
2023,03,29,06,08,6.70
2023,03,29,06,09,6.70
2023,03,29,06,10,6.60
2023,03,29,06,11,6.60
2023,03,29,06,12,6.60
2023,03,29,06,13,6.60
2023,03,29,06,14,6.60
2023,03,29,06,15,6.70
2023,03,29,06,16,6.70
2023,03,29,06,17,6.70
2023,03,29,06,18,6.80
2023,03,29,06,19,6.80
2023,03,29,06,20,6.80
2023,03,29,06,21,6.70
2023,03,29,06,22,6.70
2023,03,29,06,23,6.70
2023,03,29,06,24,6.60
2023,03,29,06,25,6.60
2023,03,29,06,26,6.60
2023,03,29,06,27,6.60
2023,03,29,06,28,6.60
2023,03,29,06,29,6.60
2023,03,29,06,30,6.60
2023,03,29,06,31,6.60
2023,03,29,06,32,6.40
2023,03,29,06,33,6.40
2023,03,29,06,34,6.40
2023,03,29,06,35,6.30
2023,03,29,06,36,6.30
2023,03,29,06,37,6.40
2023,03,29,06,38,6.40
2023,03,29,06,39,6.60
2023,03,29,06,40,6.70
2023,03,29,06,41,6.80
2023,03,29,06,42,6.80
2023,03,29,06,43,6.90
2023,03,29,06,44,6.90
2023,03,29,06,45,6.90
2023,03,29,06,46,7.00
2023,03,29,06,47,7.00
2023,03,29,06,48,7.00
2023,03,29,06,49,7.00
2023,03,29,06,50,7.00
2023,03,29,06,51,6.90
2023,03,29,06,52,6.90
2023,03,29,06,53,6.90
2023,03,29,06,54,6.80
2023,03,29,06,55,6.80
2023,03,29,06,56,6.80
2023,03,29,06,57,6.70
2023,03,29,06,58,6.70
2023,03,29,06,59,6.60
2023,03,29,07,00,6.60
2023,03,29,07,01,6.50
2023,03,29,07,02,6.40
2023,03,29,07,03,6.40
2023,03,29,07,04,6.40
2023,03,29,07,05,6.50
2023,03,29,07,06,6.60
2023,03,29,07,07,6.60
2023,03,29,07,08,6.70
2023,03,29,07,09,6.80
2023,03,29,07,10,6.80
2023,03,29,07,11,6.90
2023,03,29,07,12,6.90
2023,03,29,07,13,7.00
2023,03,29,07,14,7.00
2023,03,29,07,15,6.90
2023,03,29,07,16,6.90
2023,03,29,07,17,6.90
2023,03,29,07,18,7.00
2023,03,29,07,19,7.00
2023,03,29,07,20,7.00
2023,03,29,07,21,7.00
2023,03,29,07,22,7.00
2023,03,29,07,23,7.10
2023,03,29,07,24,7.10
2023,03,29,07,25,7.20
2023,03,29,07,26,7.30
2023,03,29,07,27,7.40
2023,03,29,07,28,7.50
2023,03,29,07,29,7.60
2023,03,29,07,30,7.60
2023,03,29,07,31,7.70
2023,03,29,07,32,7.70
2023,03,29,07,33,7.60
2023,03,29,07,34,7.70
2023,03,29,07,35,7.70
2023,03,29,07,36,7.70
2023,03,29,07,37,7.60
2023,03,29,07,38,7.60
2023,03,29,07,39,7.60
2023,03,29,07,40,7.50
2023,03,29,07,41,7.30
2023,03,29,07,42,7.20
2023,03,29,07,43,7.10
2023,03,29,07,44,7.00
2023,03,29,07,45,6.90
2023,03,29,07,46,6.80
2023,03,29,07,47,6.80
2023,03,29,07,48,6.80
2023,03,29,07,49,6.80
2023,03,29,07,50,6.80
2023,03,29,07,51,6.80
2023,03,29,07,52,6.80
2023,03,29,07,53,6.80
2023,03,29,07,54,6.80
2023,03,29,07,55,6.80
2023,03,29,07,56,6.80
2023,03,29,07,57,6.80
2023,03,29,07,58,6.80
2023,03,29,07,59,6.80
2023,03,29,08,00,6.80
2023,03,29,08,01,6.80
2023,03,29,08,02,6.80
2023,03,29,08,03,6.80
2023,03,29,08,04,6.80
2023,03,29,08,05,6.80
2023,03,29,08,06,6.80
2023,03,29,08,07,6.80
2023,03,29,08,08,6.80
2023,03,29,08,09,6.80
2023,03,29,08,10,6.80
2023,03,29,08,11,6.90
2023,03,29,08,12,6.90
2023,03,29,08,13,6.90
2023,03,29,08,14,6.90
2023,03,29,08,15,6.90
2023,03,29,08,16,6.90
2023,03,29,08,17,7.00
2023,03,29,08,18,7.00
2023,03,29,08,19,7.10
2023,03,29,08,20,7.10
2023,03,29,08,21,7.20
2023,03,29,08,22,7.20
2023,03,29,08,23,7.30
2023,03,29,08,24,7.30
2023,03,29,08,25,7.30
2023,03,29,08,26,7.30
2023,03,29,08,27,7.30
2023,03,29,08,28,7.40
2023,03,29,08,29,7.40
2023,03,29,08,30,7.50
2023,03,29,08,31,7.50
2023,03,29,08,32,7.60
2023,03,29,08,33,7.60
2023,03,29,08,34,7.60
2023,03,29,08,35,7.70
2023,03,29,08,36,7.80
2023,03,29,08,37,7.80
2023,03,29,08,38,7.80
2023,03,29,08,39,7.90
2023,03,29,08,40,7.90
2023,03,29,08,41,8.00
2023,03,29,08,42,8.00
2023,03,29,08,43,8.10
2023,03,29,08,44,8.10
2023,03,29,08,45,8.20
2023,03,29,08,46,8.20
2023,03,29,08,47,8.30
2023,03,29,08,48,8.30
2023,03,29,08,49,8.40
2023,03,29,08,50,8.50
2023,03,29,08,51,8.50
2023,03,29,08,52,8.60
2023,03,29,08,53,8.70
2023,03,29,08,54,8.70
2023,03,29,08,55,8.70
2023,03,29,08,56,8.80
2023,03,29,08,57,8.80
2023,03,29,08,58,8.90
2023,03,29,08,59,9.00
2023,03,29,09,00,9.00
2023,03,29,09,01,9.10
2023,03,29,09,02,9.20
2023,03,29,09,03,9.20
2023,03,29,09,04,9.30
2023,03,29,09,05,9.30
2023,03,29,09,06,9.40
2023,03,29,09,07,9.40
2023,03,29,09,08,9.50
2023,03,29,09,09,9.50
2023,03,29,09,10,9.60
2023,03,29,09,11,9.60
2023,03,29,09,12,9.70
2023,03,29,09,13,9.70
2023,03,29,09,14,9.70
2023,03,29,09,15,9.80
2023,03,29,09,16,9.80
2023,03,29,09,17,9.90
2023,03,29,09,18,9.90
2023,03,29,09,19,9.90
2023,03,29,09,20,10.10
2023,03,29,09,21,10.10
2023,03,29,09,22,10.10
2023,03,29,09,23,10.10
2023,03,29,09,24,10.20
2023,03,29,09,25,10.20
2023,03,29,09,26,10.20
2023,03,29,09,27,10.30
2023,03,29,09,28,10.30
2023,03,29,09,29,10.30
2023,03,29,09,30,10.40
2023,03,29,09,31,10.40
2023,03,29,09,32,10.40
2023,03,29,09,33,10.50
2023,03,29,09,34,10.60
2023,03,29,09,35,10.60
2023,03,29,09,36,10.60
2023,03,29,09,37,10.60
2023,03,29,09,38,10.60
2023,03,29,09,39,10.60
2023,03,29,09,40,10.70
2023,03,29,09,41,10.70
2023,03,29,09,42,10.80
2023,03,29,09,43,10.90
2023,03,29,09,44,10.90
2023,03,29,09,45,10.90
2023,03,29,09,46,11.00
2023,03,29,09,47,11.10
2023,03,29,09,48,11.10
2023,03,29,09,49,11.20
2023,03,29,09,50,11.20
2023,03,29,09,51,11.30
2023,03,29,09,52,11.40
2023,03,29,09,53,11.40
2023,03,29,09,54,11.60
2023,03,29,09,55,11.60
2023,03,29,09,56,11.70
2023,03,29,09,57,11.80
2023,03,29,09,58,12.00
2023,03,29,09,59,12.10
2023,03,29,10,00,12.20
2023,03,29,10,01,12.30
2023,03,29,10,02,12.40
2023,03,29,10,03,12.50
2023,03,29,10,04,12.60
2023,03,29,10,05,12.80
2023,03,29,10,06,12.90
2023,03,29,10,07,13.00
2023,03,29,10,08,13.00
2023,03,29,10,09,13.00
2023,03,29,10,10,13.10
2023,03,29,10,11,13.10
2023,03,29,10,12,13.10
2023,03,29,10,13,13.20
2023,03,29,10,14,13.20
2023,03,29,10,15,13.30
2023,03,29,10,16,13.30
2023,03,29,10,17,13.20
2023,03,29,10,18,13.10
2023,03,29,10,19,13.00
2023,03,29,10,20,13.00
2023,03,29,10,21,12.90
2023,03,29,10,22,12.80
2023,03,29,10,23,12.70
2023,03,29,10,24,12.70
2023,03,29,10,25,12.60
2023,03,29,10,26,12.60
2023,03,29,10,27,12.60
2023,03,29,10,28,12.60
2023,03,29,10,29,12.60
2023,03,29,10,30,12.60
2023,03,29,10,31,12.60
2023,03,29,10,32,12.70
2023,03,29,10,33,12.70
2023,03,29,10,34,12.70
2023,03,29,10,35,12.80
2023,03,29,10,36,12.80
2023,03,29,10,37,12.80
2023,03,29,10,38,12.90
2023,03,29,10,39,12.90
2023,03,29,10,40,12.90
2023,03,29,10,41,13.00
2023,03,29,10,42,13.00
2023,03,29,10,43,12.90
2023,03,29,10,44,13.00
2023,03,29,10,45,13.00
2023,03,29,10,46,13.00
2023,03,29,10,47,12.90
2023,03,29,10,48,12.90
2023,03,29,10,49,12.90
2023,03,29,10,50,12.90
2023,03,29,10,51,13.00
2023,03,29,10,52,13.00
2023,03,29,10,53,13.00
2023,03,29,10,54,13.00
2023,03,29,10,55,13.00
2023,03,29,10,56,12.90
2023,03,29,10,57,12.90
2023,03,29,10,58,13.00
2023,03,29,10,59,13.00
2023,03,29,11,00,13.00
2023,03,29,11,01,13.00
2023,03,29,11,02,13.00
2023,03,29,11,03,13.00
2023,03,29,11,04,13.00
2023,03,29,11,05,12.90
2023,03,29,11,06,12.80
2023,03,29,11,07,12.70
2023,03,29,11,08,12.60
2023,03,29,11,09,12.60
2023,03,29,11,10,12.60
2023,03,29,11,11,12.60
2023,03,29,11,12,12.60
2023,03,29,11,13,12.60
2023,03,29,11,14,12.60
2023,03,29,11,15,12.50
2023,03,29,11,16,12.50
2023,03,29,11,17,12.50
2023,03,29,11,18,12.60
2023,03,29,11,19,12.60
2023,03,29,11,20,12.60
2023,03,29,11,21,12.60
2023,03,29,11,22,12.70
2023,03,29,11,23,12.70
2023,03,29,11,24,12.60
2023,03,29,11,25,12.60
2023,03,29,11,26,12.60
2023,03,29,11,27,12.60
2023,03,29,11,28,12.60
2023,03,29,11,29,12.60
2023,03,29,11,30,12.70
2023,03,29,11,31,12.70
2023,03,29,11,32,12.70
2023,03,29,11,33,12.80
2023,03,29,11,34,12.80
2023,03,29,11,35,12.80
2023,03,29,11,36,12.80
2023,03,29,11,37,12.90
2023,03,29,11,38,12.90
2023,03,29,11,39,12.90
2023,03,29,11,40,12.90
2023,03,29,11,41,13.00
2023,03,29,11,42,13.10
2023,03,29,11,43,13.10
2023,03,29,11,44,13.10
2023,03,29,11,45,13.00
2023,03,29,11,46,13.00
2023,03,29,11,47,12.90
2023,03,29,11,48,12.90
2023,03,29,11,49,12.90
2023,03,29,11,50,12.90
2023,03,29,11,51,12.90
2023,03,29,11,52,12.90
2023,03,29,11,53,13.00
2023,03,29,11,54,13.10
2023,03,29,11,55,13.10
2023,03,29,11,56,13.10
2023,03,29,11,57,13.20
2023,03,29,11,58,13.30
2023,03,29,11,59,13.30
2023,03,29,12,00,13.30
2023,03,29,12,01,13.40
2023,03,29,12,02,13.50
2023,03,29,12,03,13.50
2023,03,29,12,04,13.60
2023,03,29,12,05,13.60
2023,03,29,12,06,13.60
2023,03,29,12,07,13.50
2023,03,29,12,08,13.60
2023,03,29,12,09,13.60
2023,03,29,12,10,13.70
2023,03,29,12,11,13.70
2023,03,29,12,12,13.70
2023,03,29,12,13,13.70
2023,03,29,12,14,13.70
2023,03,29,12,15,13.60
2023,03,29,12,16,13.60
2023,03,29,12,17,13.70
2023,03,29,12,18,13.80
2023,03,29,12,19,13.80
2023,03,29,12,20,13.80
2023,03,29,12,21,13.70
2023,03,29,12,22,13.70
2023,03,29,12,23,13.70
2023,03,29,12,24,13.70
2023,03,29,12,25,13.70
2023,03,29,12,26,13.70
2023,03,29,12,27,13.70
2023,03,29,12,28,13.70
2023,03,29,12,29,13.60
2023,03,29,12,30,13.60
2023,03,29,12,31,13.60
2023,03,29,12,32,13.60
2023,03,29,12,33,13.60
2023,03,29,12,34,13.60
2023,03,29,12,35,13.70
2023,03,29,12,36,13.70
2023,03,29,12,37,13.70
2023,03,29,12,38,13.70
2023,03,29,12,39,13.70
2023,03,29,12,40,13.70
2023,03,29,12,41,13.70
2023,03,29,12,42,13.70
2023,03,29,12,43,13.70
2023,03,29,12,44,13.80
2023,03,29,12,45,13.80
2023,03,29,12,46,13.80
2023,03,29,12,47,13.80
2023,03,29,12,48,13.80
2023,03,29,12,49,13.80
2023,03,29,12,50,13.80
2023,03,29,12,51,13.80
2023,03,29,12,52,13.90
2023,03,29,12,53,14.00
2023,03,29,12,54,14.10
2023,03,29,12,55,14.20
2023,03,29,12,56,14.30
2023,03,29,12,57,14.40
2023,03,29,12,58,14.40
2023,03,29,12,59,14.40
2023,03,29,13,00,14.40
2023,03,29,13,01,14.40
2023,03,29,13,02,14.30
2023,03,29,13,03,14.20
2023,03,29,13,04,14.20
2023,03,29,13,05,14.20
2023,03,29,13,06,14.20
2023,03,29,13,07,14.10
2023,03,29,13,08,14.10
2023,03,29,13,09,14.10
2023,03,29,13,10,14.10
2023,03,29,13,11,14.10
2023,03,29,13,12,14.10
2023,03,29,13,13,14.10
2023,03,29,13,14,14.20
2023,03,29,13,15,14.20
2023,03,29,13,16,14.20
2023,03,29,13,17,14.30
2023,03,29,13,18,14.30
2023,03,29,13,19,14.30
2023,03,29,13,20,14.30
2023,03,29,13,21,14.30
2023,03,29,13,22,14.30
2023,03,29,13,23,14.30
2023,03,29,13,24,14.30
2023,03,29,13,25,14.30
2023,03,29,13,26,14.40
2023,03,29,13,27,14.40
2023,03,29,13,28,14.40
2023,03,29,13,29,14.40
2023,03,29,13,30,14.30
2023,03,29,13,31,14.30
2023,03,29,13,32,14.40
2023,03,29,13,33,14.40
2023,03,29,13,34,14.40
2023,03,29,13,35,14.50
2023,03,29,13,36,14.60
2023,03,29,13,37,14.50
2023,03,29,13,38,14.50
2023,03,29,13,39,14.60
2023,03,29,13,40,14.60
2023,03,29,13,41,14.70
2023,03,29,13,42,14.80
2023,03,29,13,43,14.80
2023,03,29,13,44,14.80
2023,03,29,13,45,14.90
2023,03,29,13,46,15.00
2023,03,29,13,47,15.00
2023,03,29,13,48,15.00
2023,03,29,13,49,15.00
2023,03,29,13,50,15.10
2023,03,29,13,51,15.20
2023,03,29,13,52,15.20
2023,03,29,13,53,15.20
2023,03,29,13,54,15.30
2023,03,29,13,55,15.30
2023,03,29,13,56,15.30
2023,03,29,13,57,15.30
2023,03,29,13,58,15.30
2023,03,29,13,59,15.20
2023,03,29,14,00,15.10
2023,03,29,14,01,15.10
2023,03,29,14,02,15.00
2023,03,29,14,03,14.90
2023,03,29,14,04,14.90
2023,03,29,14,05,15.00
2023,03,29,14,06,15.00
2023,03,29,14,07,15.10
2023,03,29,14,08,15.10
2023,03,29,14,09,15.10
2023,03,29,14,10,15.00
2023,03,29,14,11,15.00
2023,03,29,14,12,15.00
2023,03,29,14,13,15.00
2023,03,29,14,14,15.10
2023,03,29,14,15,15.10
2023,03,29,14,16,15.10
2023,03,29,14,17,15.20
2023,03,29,14,18,15.10
2023,03,29,14,19,15.00
2023,03,29,14,20,15.10
2023,03,29,14,21,15.10
2023,03,29,14,22,15.10
2023,03,29,14,23,15.10
2023,03,29,14,24,15.00
2023,03,29,14,25,14.90
2023,03,29,14,26,14.90
2023,03,29,14,27,14.80
2023,03,29,14,28,14.80
2023,03,29,14,29,14.80
2023,03,29,14,30,14.80
2023,03,29,14,31,14.80
2023,03,29,14,32,14.90
2023,03,29,14,33,15.00
2023,03,29,14,34,15.10
2023,03,29,14,35,15.20
2023,03,29,14,36,15.30
2023,03,29,14,37,15.30
2023,03,29,14,38,15.40
2023,03,29,14,39,15.40
2023,03,29,14,40,15.40
2023,03,29,14,41,15.30
2023,03,29,14,42,15.20
2023,03,29,14,43,15.10
2023,03,29,14,44,15.10
2023,03,29,14,45,15.10
2023,03,29,14,46,15.10
2023,03,29,14,47,15.00
2023,03,29,14,48,15.00
2023,03,29,14,49,15.00
2023,03,29,14,50,15.00
2023,03,29,14,51,14.90
2023,03,29,14,52,14.90
2023,03,29,14,53,14.90
2023,03,29,14,54,14.90
2023,03,29,14,55,15.00
2023,03,29,14,56,15.10
2023,03,29,14,57,15.10
2023,03,29,14,58,15.10
2023,03,29,14,59,15.20
2023,03,29,15,00,15.30
2023,03,29,15,01,15.40
2023,03,29,15,02,15.40
2023,03,29,15,03,15.40
2023,03,29,15,04,15.30
2023,03,29,15,05,15.30
2023,03,29,15,06,15.30
2023,03,29,15,07,15.30
2023,03,29,15,08,15.30
2023,03,29,15,09,15.30
2023,03,29,15,10,15.30
2023,03,29,15,11,15.30
2023,03,29,15,12,15.20
2023,03,29,15,13,15.10
2023,03,29,15,14,15.10
2023,03,29,15,15,14.90
2023,03,29,15,16,14.80
2023,03,29,15,17,14.80
2023,03,29,15,18,14.80
2023,03,29,15,19,14.80
2023,03,29,15,20,14.70
2023,03,29,15,21,14.70
2023,03,29,15,22,14.60
2023,03,29,15,23,14.60
2023,03,29,15,24,14.60
2023,03,29,15,25,14.60
2023,03,29,15,26,14.60
2023,03,29,15,27,14.70
2023,03,29,15,28,14.80
2023,03,29,15,29,14.80
2023,03,29,15,30,14.80
2023,03,29,15,31,14.90
2023,03,29,15,32,14.90
2023,03,29,15,33,15.00
2023,03,29,15,34,15.00
2023,03,29,15,35,15.10
2023,03,29,15,36,15.10
2023,03,29,15,37,15.20
2023,03,29,15,38,15.20
2023,03,29,15,39,15.20
2023,03,29,15,40,15.20
2023,03,29,15,41,15.10
2023,03,29,15,42,15.10
2023,03,29,15,43,15.00
2023,03,29,15,44,14.90
2023,03,29,15,45,14.90
2023,03,29,15,46,14.90
2023,03,29,15,47,14.80
2023,03,29,15,48,14.90
2023,03,29,15,49,14.90
2023,03,29,15,50,14.80
2023,03,29,15,51,14.80
2023,03,29,15,52,14.80
2023,03,29,15,53,14.70
2023,03,29,15,54,14.60
2023,03,29,15,55,14.60
2023,03,29,15,56,14.50
2023,03,29,15,57,14.40
2023,03,29,15,58,14.40
2023,03,29,15,59,14.40
2023,03,29,16,00,14.30
2023,03,29,16,01,14.30
2023,03,29,16,02,14.30
2023,03,29,16,03,14.30
2023,03,29,16,04,14.30
2023,03,29,16,05,14.30
2023,03,29,16,06,14.40
2023,03,29,16,07,14.40
2023,03,29,16,08,14.40
2023,03,29,16,09,14.30
2023,03,29,16,10,14.30
2023,03,29,16,11,14.30
2023,03,29,16,12,14.30
2023,03,29,16,13,14.20
2023,03,29,16,14,14.10
2023,03,29,16,15,14.00
2023,03,29,16,16,13.90
2023,03,29,16,17,13.90
2023,03,29,16,18,13.80
2023,03,29,16,19,13.80
2023,03,29,16,20,13.80
2023,03,29,16,21,13.80
2023,03,29,16,22,13.80
2023,03,29,16,23,13.90
2023,03,29,16,24,13.90
2023,03,29,16,25,13.90
2023,03,29,16,26,13.90
2023,03,29,16,27,14.00
2023,03,29,16,28,14.00
2023,03,29,16,29,14.10
2023,03,29,16,30,14.20
2023,03,29,16,31,14.20
2023,03,29,16,32,14.20
2023,03,29,16,33,14.30
2023,03,29,16,34,14.30
2023,03,29,16,35,14.30
2023,03,29,16,36,14.20
2023,03,29,16,37,14.00
2023,03,29,16,38,13.80
2023,03,29,16,39,13.70
2023,03,29,16,40,13.60
2023,03,29,16,41,13.50
2023,03,29,16,42,13.50
2023,03,29,16,43,13.40
2023,03,29,16,44,13.40
2023,03,29,16,45,13.40
2023,03,29,16,46,13.50
2023,03,29,16,47,13.50
2023,03,29,16,48,13.50
2023,03,29,16,49,13.50
2023,03,29,16,50,13.60
2023,03,29,16,51,13.60
2023,03,29,16,52,13.60
2023,03,29,16,53,13.50
2023,03,29,16,54,13.50
2023,03,29,16,55,13.60
2023,03,29,16,56,13.60
2023,03,29,16,57,13.60
2023,03,29,16,58,13.60
2023,03,29,16,59,13.60
2023,03,29,17,00,13.70
2023,03,29,17,01,13.70
2023,03,29,17,02,13.70
2023,03,29,17,03,13.70
2023,03,29,17,04,13.70
2023,03,29,17,05,13.70
2023,03,29,17,06,13.80
2023,03,29,17,07,13.80
2023,03,29,17,08,13.80
2023,03,29,17,09,13.90
2023,03,29,17,10,13.80
2023,03,29,17,11,13.70
2023,03,29,17,12,13.60
2023,03,29,17,13,13.50
2023,03,29,17,14,13.50
2023,03,29,17,15,13.40
2023,03,29,17,16,13.40
2023,03,29,17,17,13.40
2023,03,29,17,18,13.50
2023,03,29,17,19,13.50
2023,03,29,17,20,13.60
2023,03,29,17,21,13.60
2023,03,29,17,22,13.60
2023,03,29,17,23,13.60
2023,03,29,17,24,13.60
2023,03,29,17,25,13.60
2023,03,29,17,26,13.40
2023,03,29,17,27,13.30
2023,03,29,17,28,13.10
2023,03,29,17,29,13.00
2023,03,29,17,30,12.80
2023,03,29,17,31,12.80
2023,03,29,17,32,12.80
2023,03,29,17,33,12.80
2023,03,29,17,34,12.70
2023,03,29,17,35,12.70
2023,03,29,17,36,12.60
2023,03,29,17,37,12.60
2023,03,29,17,38,12.50
2023,03,29,17,39,12.50
2023,03,29,17,40,12.40
2023,03,29,17,41,12.40
2023,03,29,17,42,12.40
2023,03,29,17,43,12.30